Location: ??
(34.7252°N, 135.5457°E)
Time: 17:39:14
(UTC+00:00)

IDEFIX/ARIANE 42P - Pass Details

Date: 24 September 2020
Orbit: 785 x 802 km, 98.4° (Epoch: 27 October)

Event Time Altitude Azimuth Distance (km) Brightness Sun altitude
Rises 17:53:26 0° 14° (NNE) 3,318 6.3 -35.4°
Reaches altitude 10° 17:55:47 10° 16° (NNE) 2,384 5.5 -35.0°
Enters shadow 17:58:25 30° 20° (NNE) 1,396 4.1 -34.5°
